Weather reports worldwide

Advertisment
Hondo, tx, United States of America (2074514): temperature & dewpoint: 11.07.2019 02:00:00 - 17.07.2019 02:00:00 (CDT)Hondo, tx, United States of America (2074514): wind speed & gusts: 11.07.2019 02:00:00 - 17.07.2019 02:00:00 (CDT)Hondo, tx, United States of America (2074514): wind direction: 11.07.2019 02:00:00 - 17.07.2019 02:00:00 (CDT)Hondo, tx, United States of America (2074514): reduced air pressure: 11.07.2019 02:00:00 - 17.07.2019 02:00:00 (CDT)Hondo, tx, United States of America (2074514): visibility: 11.07.2019 02:00:00 - 17.07.2019 02:00:00 (CDT)Hondo, tx, United States of America (2074514): precipitation: 11.07.2019 02:00:00 - 17.07.2019 02:00:00 (CDT)
Date & Time tt [°C] td [°C] ff [km/h] ff [kn] fx [km/h] fx [kn] dd ppp [hPa] vv [km] rr [mm]
17.07.2019 02:00:00 25,6 22,2 13 7 - - ESE 1014,6 16 -
17.07.2019 01:00:00 26,7 22,2 18 10 - - SE 1014,4 16 -
17.07.2019 00:00:00 27,2 22,8 26 14 - - SE 1013,9 16 -
16.07.2019 23:00:00 28,9 22,2 26 14 - - SE 1013,4 16 -
16.07.2019 22:00:00 30,0 22,2 28 15 - - SE 1012,5 16 -
16.07.2019 21:00:00 31,7 21,7 29 16 - - ESE 1011,8 16 -
16.07.2019 20:00:00 33,9 20,6 22 12 - - SE 1011,3 16 -
16.07.2019 19:00:00 35,0 20,0 24 13 - - SE 1011,2 16 -
16.07.2019 18:00:00 36,7 19,4 26 14 - - SE 1011,3 16 -
16.07.2019 17:00:00 36,1 20,0 18 10 - - SSE 1012,0 16 -
16.07.2019 16:00:00 35,6 20,0 16 9 - - S 1012,5 16 -
16.07.2019 15:00:00 35,0 20,6 21 11 - - S 1013,3 16 -
16.07.2019 14:00:00 32,8 21,7 11 6 - - S 1014,2 16 -
16.07.2019 13:00:00 32,2 22,2 18 10 - - SSE 1014,7 16 -
16.07.2019 12:00:00 31,1 22,2 16 9 - - SE 1014,8 16 -
16.07.2019 11:00:00 29,4 22,8 16 9 - - S 1014,9 16 -
16.07.2019 10:00:00 27,2 22,8 16 9 - - SSE 1014,9 16 -
16.07.2019 09:00:00 26,1 23,3 13 7 - - SSE 1014,7 16 -
16.07.2019 08:00:00 25,0 23,3 13 7 - - SE 1014,3 16 -
16.07.2019 07:00:00 23,9 22,2 9 5 - - E 1014,0 16 -
16.07.2019 06:00:00 23,9 22,2 9 5 - - E 1013,6 16 -
16.07.2019 05:00:00 24,4 22,2 9 5 - - E 1012,9 16 -
16.07.2019 04:00:00 25,0 22,2 11 6 - - E 1012,8 16 -
16.07.2019 03:00:00 25,6 22,2 13 7 - - ESE 1012,5 16 -
16.07.2019 02:00:00 26,7 22,8 16 9 - - ESE 1012,6 16 -
16.07.2019 01:00:00 27,8 22,8 21 11 - - SE 1012,4 16 -
16.07.2019 00:00:00 28,3 23,3 16 9 - - SE 1012,0 16 -
15.07.2019 23:00:00 29,4 22,8 22 12 - - SE 1011,4 16 -
15.07.2019 22:00:00 30,0 21,1 22 12 - - ESE 1010,8 16 -
15.07.2019 21:00:00 31,1 20,0 11 6 - - E 1010,3 16 -
15.07.2019 20:00:00 33,3 18,9 13 7 - - ESE 1010,0 16 -
15.07.2019 19:00:00 33,9 17,8 16 9 - - SSE 1010,2 16 -
15.07.2019 18:00:00 35,0 19,4 24 13 - - SE 1010,2 16 -
15.07.2019 17:00:00 35,6 20,6 21 11 - - S 1010,2 16 -
15.07.2019 16:00:00 35,6 20,0 18 10 - - S 1011,0 16 -
15.07.2019 15:00:00 35,0 21,7 13 7 - - SSE 1011,5 16 -
15.07.2019 14:00:00 33,3 21,7 16 9 - - S 1012,5 16 -
15.07.2019 13:00:00 32,8 21,1 13 7 - - S 1013,0 16 -
15.07.2019 12:00:00 31,1 21,7 9 5 - - S 1013,3 16 -
15.07.2019 11:00:00 30,0 21,1 9 5 - - ESE 1013,2 16 -
15.07.2019 10:00:00 28,3 22,2 8 4 - - ESE 1013,4 16 -
15.07.2019 09:00:00 26,7 22,2 8 4 - - E 1013,3 16 -
15.07.2019 08:00:00 25,6 22,2 0 0 - - N 1012,5 16 -
15.07.2019 07:00:00 24,4 22,2 8 4 - - SSW 1011,9 16 -
15.07.2019 06:00:00 25,0 23,3 0 0 - - N 1011,9 16 -
15.07.2019 05:00:00 25,0 23,3 5 3 - - E 1011,4 16 -
15.07.2019 04:00:00 25,6 23,3 0 0 - - N 1011,1 16 -
15.07.2019 03:00:00 25,0 23,3 8 4 - - NE 1011,4 16 -
15.07.2019 02:00:00 25,0 23,9 11 6 - - N 1011,8 16 0,0
15.07.2019 01:00:00 25,0 23,3 5 3 - - N 1012,3 16 0,0
15.07.2019 00:00:00 26,7 23,3 9 5 - - ESE 1012,0 16 0,0
14.07.2019 23:00:00 28,9 21,7 11 6 - - - 1011,0 16 0,0
14.07.2019 22:00:00 31,1 20,6 21 11 - - E 1009,8 16 -
14.07.2019 21:00:00 32,2 20,6 15 8 - - ENE 1009,2 16 -
14.07.2019 20:00:00 35,0 20,0 9 5 - - SE 1008,7 16 -
14.07.2019 19:00:00 35,6 18,3 0 0 - - N 1008,8 16 -
14.07.2019 18:00:00 36,7 18,3 8 4 - - - 1009,0 16 0,0
14.07.2019 17:00:00 33,9 19,4 21 11 57 31 SSE 1009,5 16 0,0
14.07.2019 16:00:00 37,8 18,9 15 8 - - E 1009,7 16 -
14.07.2019 15:00:00 37,2 18,3 9 5 - - - 1010,3 16 -
14.07.2019 14:00:00 36,1 18,3 8 4 - - - 1011,0 16 -
14.07.2019 13:00:00 36,1 18,3 9 5 - - WNW 1011,8 16 -
14.07.2019 12:00:00 33,9 19,4 0 0 - - N 1012,4 16 -
14.07.2019 11:00:00 33,3 21,1 11 6 - - NNW 1012,5 16 -
14.07.2019 10:00:00 31,1 21,1 9 5 - - NE 1012,7 16 -
14.07.2019 09:00:00 29,4 21,1 13 7 - - NE 1012,4 16 -
14.07.2019 08:00:00 26,1 20,6 13 7 - - N 1012,1 16 -
14.07.2019 07:00:00 23,3 19,4 11 6 - - N 1011,6 16 -
14.07.2019 06:00:00 23,3 19,4 11 6 - - N 1010,9 16 -
14.07.2019 05:00:00 23,3 19,4 9 5 - - N 1010,4 16 -
14.07.2019 04:00:00 23,9 19,4 9 5 - - NNW 1010,3 16 -
14.07.2019 03:00:00 23,9 19,4 9 5 - - N 1010,2 16 -
14.07.2019 02:00:00 24,4 18,9 11 6 - - N 1010,5 16 -
14.07.2019 01:00:00 24,4 18,3 13 7 - - NNE 1010,3 16 -
14.07.2019 00:00:00 25,6 17,8 9 5 - - N 1010,4 16 -
13.07.2019 23:00:00 26,7 16,7 8 4 - - NNE 1009,9 16 -
13.07.2019 22:00:00 27,2 16,1 11 6 - - NNE 1009,4 16 -
13.07.2019 21:00:00 30,0 15,0 0 0 - - N 1008,7 16 -
13.07.2019 20:00:00 31,7 14,4 9 5 - - NE 1008,6 16 -
13.07.2019 19:00:00 35,0 13,3 13 7 - - NE 1008,5 16 -
13.07.2019 18:00:00 35,6 13,9 18 10 - - NE 1008,5 16 -
13.07.2019 17:00:00 36,1 13,9 21 11 - - NE 1008,9 16 -
13.07.2019 16:00:00 36,1 13,9 18 10 - - N 1009,3 16 -
13.07.2019 15:00:00 36,1 15,0 29 16 - - N 1009,8 16 -
13.07.2019 14:00:00 33,9 15,0 8 4 - - - 1010,5 16 -
13.07.2019 13:00:00 33,9 14,4 18 10 - - N 1010,9 16 -
13.07.2019 12:00:00 32,8 16,1 22 12 - - NNE 1011,2 16 -
13.07.2019 11:00:00 31,7 17,2 18 10 - - NNE 1011,5 16 -
13.07.2019 10:00:00 28,9 18,3 8 4 - - N 1011,7 16 -
13.07.2019 09:00:00 26,1 18,3 8 4 - - N 1011,6 16 -
13.07.2019 08:00:00 23,3 18,3 9 5 - - N 1010,8 16 -
13.07.2019 07:00:00 21,1 17,2 5 3 - - N 1010,3 16 -
13.07.2019 06:00:00 21,7 17,8 11 6 - - NNE 1009,6 16 -
13.07.2019 05:00:00 22,2 18,3 13 7 - - NNE 1009,4 16 -
13.07.2019 04:00:00 22,8 18,3 5 3 - - NNE 1009,4 16 -
13.07.2019 03:00:00 23,3 17,8 11 6 - - NE 1009,7 16 -
13.07.2019 02:00:00 24,4 18,9 13 7 - - NE 1009,8 16 -
13.07.2019 01:00:00 23,9 20,6 9 5 - - NNE 1009,6 16 -
13.07.2019 00:00:00 26,1 20,6 13 7 - - E 1009,4 16 -
12.07.2019 23:00:00 24,4 20,6 13 7 - - NNE 1008,7 16 -
12.07.2019 22:00:00 25,0 21,1 9 5 - - N 1008,3 16 -
12.07.2019 21:00:00 26,1 21,7 8 4 - - N 1008,1 16 -
12.07.2019 20:00:00 28,3 21,7 5 3 - - NW 1008,0 16 0,0
12.07.2019 19:00:00 27,8 21,7 15 8 - - NW 1008,0 16 0,0
12.07.2019 18:00:00 30,6 20,0 15 8 - - WNW 1007,4 16 -
12.07.2019 17:00:00 35,0 20,0 11 6 - - SE 1008,1 16 -
12.07.2019 16:00:00 35,0 20,0 11 6 - - - 1008,8 16 -
12.07.2019 15:00:00 35,0 20,0 - - - - - 1009,4 16 -
12.07.2019 14:00:00 35,0 20,0 15 8 - - E 1010,4 16 -
12.07.2019 13:00:00 34,4 20,6 18 10 - - ESE 1011,0 16 -
12.07.2019 12:00:00 32,8 21,1 16 9 - - ESE 1011,4 16 -
12.07.2019 11:00:00 31,7 21,7 15 8 - - E 1011,7 16 -
12.07.2019 10:00:00 30,6 22,2 16 9 - - E 1011,6 16 -
12.07.2019 09:00:00 28,9 21,1 15 8 - - ENE 1011,1 16 -
12.07.2019 08:00:00 25,6 20,6 9 5 - - NNE 1010,7 16 -
12.07.2019 07:00:00 22,2 19,4 13 7 - - N 1010,4 16 -
12.07.2019 06:00:00 22,2 19,4 9 5 - - NNW 1010,4 16 -
12.07.2019 05:00:00 22,8 19,4 9 5 - - N 1010,0 16 -
12.07.2019 04:00:00 23,3 19,4 9 5 - - N 1010,5 16 -
12.07.2019 03:00:00 23,3 19,4 11 6 - - N 1011,0 16 -
12.07.2019 02:00:00 25,0 19,4 9 5 - - N 1011,6 16 -
12.07.2019 01:00:00 25,0 20,0 9 5 - - N 1011,4 16 -
12.07.2019 00:00:00 26,7 19,4 0 0 - - N 1011,7 16 -
11.07.2019 23:00:00 27,8 19,4 5 3 - - ENE 1011,4 16 -
11.07.2019 22:00:00 28,9 18,9 9 5 - - NE 1010,7 16 -
11.07.2019 21:00:00 31,1 18,9 9 5 - - ENE 1010,5 16 -
11.07.2019 20:00:00 33,9 17,8 18 10 - - ENE 1010,3 16 -
11.07.2019 19:00:00 35,6 17,8 16 9 - - NE 1010,0 16 -
11.07.2019 18:00:00 36,1 18,3 26 14 - - NE 1009,8 16 -
11.07.2019 17:00:00 36,7 18,3 28 15 - - NE 1010,6 16 -
11.07.2019 16:00:00 36,1 18,3 26 14 48 26 NNE 1011,3 16 -
11.07.2019 15:00:00 35,0 21,1 18 10 - - E 1012,3 16 -
11.07.2019 14:00:00 31,1 20,6 15 8 - - E 1013,7 16 -
11.07.2019 13:00:00 32,2 20,6 - - - - - 1014,3 16 -
11.07.2019 12:00:00 31,1 21,1 11 6 - - N 1014,8 16 -
11.07.2019 11:00:00 28,3 21,1 9 5 - - E 1015,1 16 -
11.07.2019 10:00:00 26,1 20,6 8 4 - - ENE 1015,4 16 -
11.07.2019 09:00:00 24,4 20,0 8 4 - - NNE 1014,8 16 -
11.07.2019 08:00:00 22,8 19,4 13 7 - - N 1014,3 16 -
11.07.2019 07:00:00 21,7 19,4 8 4 - - N 1014,1 16 -
11.07.2019 06:00:00 21,1 19,4 9 5 - - NNW 1013,6 16 -
11.07.2019 05:00:00 22,2 18,9 11 6 - - NNE 1014,1 16 -
11.07.2019 04:00:00 22,8 18,3 11 6 - - NE 1014,1 16 -
11.07.2019 03:00:00 22,8 18,9 16 9 - - S 1013,4 16 -
11.07.2019 02:00:00 23,9 18,3 15 8 - - ENE 1014,7 16 0,0

tt = temperature
td = dewpoint
ff = wind speed
fx = gusts
dd = wind direction
ppp = reduced air pressure
vv = visibility
rr = precipitation

Next stations